Location: *
(51.8167°N, 12.5000°E)
Time: 05:39:49
(UTC+00:00)

CZ-4C R/B - Pass Details

Date: 16 September 2019
Orbit: 653 x 1349 km, 63.4° (Epoch: 19 October)

Event Time Altitude Azimuth Distance (km) Brightness Sun altitude
Rises 19:26:43 0° 284° (WNW) 3,378 6.7 -18.9°
Reaches altitude 10° 19:29:20 10° 295° (WNW) 2,546 5.9 -19.2°
Maximum altitude 19:34:34 30° 356° (N) 1,697 4.1 -19.9°
Drops below altitude 10° 19:40:38 10° 56° (NE) 2,986 4.8 -20.7°
Enters shadow 19:42:35 - 63° (ENE) 3,604 5.2 -21.0°
